GFSCGP_con_mucape_057.txt.gz
CAPE
0 0 0 0 0 0 0 0 0 0 0 0 0 0 0 0 0 0 0 0 0 0 0 0 0 0 0 0 0 0 87 2257 1922 1064 384 110 51 167 146 140 394 53 60 168
0 0 0 0 0 0 0 0 0 0 0 0 0 0 0 0 0 0 0 0 0 0 0 0 0 0 0 0 0 0 0 29 1200 1630 1511 1157 874 460 474 403 971 968 596 398
0 0 0 0 0 0 0 0 0 0 0 0 0 0 0 0 0 0 0 0 0 0 0 0 0 0 0 0 0 0 0 0 0 670 1204 1346 1204 1154 859 1084 1451 1351 1010 812
0 0 0 0 0 0 0 0 0 0 0 0 0 0 0 0 0 0 0 0 0 0 0 0 0 0 0 0 0 0 0 0 0 2 283 1504 1295 1352 1613 1626 1529 1692 1396 1240
0 0 0 0 0 0 0 0 0 0 0 0 0 0 0 0 0 0 0 0 0 0 0 0 0 0 0 0 0 0 0 0 0 0 33 205 1357 1593 1817 1539 2259 2707 2073 2058
0 0 0 0 0 0 0 0 0 0 0 0 0 0 0 0 0 0 0 0 0 0 0 0 0 0 0 0 0 0 0 0 0 0 0 47 320 890 951 1386 1543 1514 1644 1881
0 0 0 0 0 0 0 0 0 0 0 0 0 0 0 0 0 0 0 0 0 0 0 0 0 0 0 0 0 0 0 0 0 0 0 0 112 345 889 1324 1251 1512 1418 1528
0 0 0 0 0 0 0 0 0 0 0 0 0 0 0 0 0 0 0 0 0 0 0 0 0 0 0 0 0 0 0 0 0 0 0 0 35 144 493 1115 929 805 942 1677
0 0 0 0 0 0 0 0 0 0 0 0 0 0 0 0 0 0 0 0 0 0 0 0 0 0 0 0 0 0 0 0 0 0 0 0 0 199 694 1789 1901 1347 1416 1348
0 0 0 0 0 0 0 0 0 0 0 0 0 0 0 0 0 0 0 0 0 0 0 0 0 0 0 0 0 0 0 0 0 0 0 0 0 68 404 1315 1525 1591 1712 1294
0 0 0 0 0 0 0 0 0 0 0 0 0 0 0 0 0 0 0 0 0 0 0 0 0 0 0 0 0 0 0 0 0 0 0 0 0 3 239 469 764 958 1289 1359
18 17 0 0 0 0 0 0 0 0 0 0 0 0 0 0 0 0 0 0 0 0 1 2 0 0 27 2 0 0 0 0 0 0 0 0 0 2 134 332 573 882 1144 1278
50 0 0 0 0 0 0 0 0 0 0 0 0 0 0 0 0 0 0 0 0 0 0 1 0 0 46 12 0 0 0 0 0 0 0 0 0 23 247 383 713 978 1168 1386
24 36 11 0 0 0 0 0 0 0 0 0 0 0 0 0 0 0 0 0 0 0 0 0 0 0 69 42 3 0 0 8 0 39 65 0 26 235 424 512 765 1038 1309 1513
49 34 22 6 0 0 0 0 0 0 0 0 0 0 0 0 0 0 0 3 3 0 0 0 0 3 8 2 10 7 0 4 1 4 142 225 338 539 455 624 942 1204 1514 1658
25 12 19 0 0 0 0 0 0 0 0 0 0 1 0 1 1 4 4 0 1 1 0 0 0 0 0 0 7 12 0 23 40 47 57 553 794 593 698 1007 1188 1339 1665 1932
55 51 0 0 0 0 0 0 0 0 3 0 7 8 2 0 1 1 0 0 0 0 0 0 7 0 0 0 0 73 38 67 64 75 92 630 1184 807 896 965 1086 1296 1623 2114
0 0 0 0 0 0 0 0 0 0 0 0 2 3 14 5 0 0 0 0 0 0 0 0 0 15 4 1 3 22 82 91 70 76 114 1449 1161 922 944 1094 1826 2016 1969 2176
2 5 0 0 31 7 0 0 16 24 0 0 4 0 0 0 0 0 0 0 0 0 0 0 0 20 18 2 15 1 29 67 89 204 456 1238 1523 1018 1515 1809 1905 1786 1824 1603
1 9 2 0 0 0 0 4 1 15 17 0 0 0 0 0 0 0 0 0 0 0 0 0 10 28 29 7 30 0 4 37 154 177 640 1128 1548 1657 1741 1429 1240 1350 1540 1329
0 0 0 0 0 2 0 23 9 24 64 0 0 0 0 0 0 0 0 0 0 0 0 13 43 41 37 9 39 46 17 68 101 401 665 923 1582 1707 1041 1127 1446 1401 1103 782
0 0 0 0 0 0 26 16 0 0 0 0 61 0 0 0 0 0 0 0 0 0 0 4 6 14 0 33 64 72 6 139 200 315 807 1000 1056 913 1075 1163 1124 776 788 509
0 83 16 0 104 18 2 6 30 34 93 81 0 0 0 0 0 0 0 0 0 1 6 8 4 6 1 8 53 42 21 161 357 443 777 546 544 619 919 850 558 694 675 80
0 0 0 0 0 0 33 3 74 66 43 7 0 0 0 0 0 0 0 0 0 4 8 6 2 0 3 38 45 2 30 114 382 630 597 343 408 457 460 336 437 387 83 6
0 2 1 1 0 22 10 35 72 11 0 0 0 0 0 0 0 0 0 2 8 5 6 23 4 0 0 0 0 20 32 178 283 322 239 353 347 284 268 243 201 180 88 5
3 0 0 1 3 0 75 87 58 0 0 0 0 0 0 0 0 1 2 3 12 22 12 0 0 0 0 0 5 0 114 289 306 196 251 223 151 113 53 18 13 35 17 13

GFSCGP_con_mucape_060.txt.gz
CAPE
0 0 0 0 0 0 0 0 0 0 0 0 0 0 0 0 0 0 0 0 0 0 0 0 0 0 0 0 0 0 1 307 1896 516 502 441 445 446 385 318 806 782 875 759
0 0 0 0 0 0 0 0 0 0 0 0 0 0 0 0 0 0 0 0 0 0 0 0 0 0 0 0 0 0 0 0 131 1862 2301 1559 814 383 467 419 758 1115 850 766
0 0 0 0 0 0 0 0 0 0 0 0 0 0 0 0 0 0 0 0 0 0 0 0 0 0 0 0 0 0 0 0 0 9 884 2337 2319 2161 1420 880 694 1062 1372 789
0 0 0 0 0 0 0 0 0 0 0 0 0 0 0 0 0 0 0 0 0 0 0 0 0 0 0 0 0 0 0 0 0 0 9 967 1732 2071 1897 2280 1531 1200 1985 1522
0 0 0 0 0 0 0 0 0 0 0 0 0 0 0 0 0 0 0 0 0 0 0 0 0 0 0 0 0 0 0 0 0 12 45 20 620 501 1305 2081 3213 3049 2973 2246
0 0 0 0 0 0 0 0 0 0 0 0 0 0 0 0 0 0 0 0 0 0 0 0 0 0 0 0 0 0 0 0 0 0 12 134 226 439 526 1359 2206 2289 2270 2758
21 0 0 0 0 0 0 0 0 0 0 0 0 0 0 0 0 0 0 0 0 0 0 0 0 0 0 0 0 0 0 0 0 0 0 6 89 327 558 1584 948 2153 1773 1938
25 4 0 0 0 14 29 0 0 0 0 0 0 0 0 0 0 0 0 0 0 0 0 0 0 0 0 0 0 0 0 0 0 0 0 0 1 33 224 510 464 607 1139 1623
41 3 0 0 0 0 2 0 26 0 0 0 0 0 0 0 0 0 0 0 0 0 0 0 0 0 0 0 0 0 0 0 0 0 0 0 0 0 158 1466 1904 839 1728 1457
48 35 13 12 0 0 2 27 0 0 0 0 0 0 2 0 0 0 0 0 0 0 0 0 0 0 0 0 0 0 0 0 0 0 0 0 0 8 188 689 1688 2112 2372 2042
67 76 54 25 48 21 21 26 10 38 0 0 0 0 3 0 0 0 1 4 6 4 1 0 0 0 0 0 0 0 0 0 0 0 0 0 0 0 0 115 649 1527 2704 2213
42 65 3 36 37 23 27 61 69 0 0 39 0 0 0 0 0 0 5 8 0 0 0 0 0 0 0 0 0 4 0 0 0 0 2 0 0 0 0 102 591 983 1297 2007
77 70 94 0 25 8 32 35 32 49 57 85 69 0 4 7 24 30 11 9 8 2 0 0 0 0 1 3 12 21 14 0 0 0 31 91 41 30 25 157 694 1103 1110 1806
20 114 99 46 29 38 36 39 40 39 94 102 33 6 45 38 42 61 52 28 22 20 23 9 0 0 2 16 39 77 63 43 20 0 45 103 317 451 260 310 693 1190 1115 1604
88 81 90 86 86 61 32 31 23 15 27 66 42 25 31 51 69 76 65 57 34 26 21 20 6 3 8 7 61 69 77 99 101 35 72 161 321 526 649 504 820 1268 1178 1405
118 29 58 56 27 7 25 43 68 62 72 63 59 45 54 72 57 47 20 17 37 36 20 18 21 18 16 15 61 46 51 119 181 170 172 174 276 427 687 855 1192 1384 1289 1533
63 71 27 30 18 68 111 168 149 147 117 100 123 109 91 77 65 11 10 25 45 35 18 23 13 56 62 46 50 42 79 169 186 308 274 317 319 477 661 1072 1322 1419 1890 2622
5 48 0 14 38 0 113 58 24 44 53 71 79 79 73 61 42 27 45 44 42 2 0 69 41 57 73 54 47 67 67 162 199 280 396 344 323 491 882 1327 1514 1971 2361 3214
1 28 56 107 159 119 67 181 176 116 32 14 69 55 28 28 42 0 23 34 26 0 0 0 71 73 35 59 52 59 48 59 242 285 390 312 425 688 1315 1738 1932 1900 2215 2619
0 0 160 70 0 0 73 88 59 88 36 42 43 26 40 35 0 53 50 32 0 0 0 3 0 65 71 55 61 104 75 122 232 290 273 404 597 548 1355 1450 1410 1962 2234 2461
0 0 0 0 0 43 117 97 31 53 105 48 40 52 71 79 104 53 0 0 0 0 0 0 0 69 69 98 88 104 66 100 123 194 230 471 544 817 1166 1360 1730 2011 2375 2094
38 55 50 47 36 28 81 51 56 72 49 56 52 54 0 13 0 0 0 0 0 0 0 0 1 8 12 11 25 61 133 46 1 55 236 445 404 946 1208 1359 1627 2056 1550 1298
52 171 127 88 154 109 55 100 96 94 98 82 35 0 0 0 0 0 0 0 0 0 0 3 2 1 6 0 6 43 96 100 14 173 253 356 819 931 1092 1424 1401 1438 1371 1212
0 0 0 5 33 24 56 86 77 109 79 60 55 0 0 0 0 0 0 0 4 0 0 1 5 11 4 5 0 38 34 75 68 108 291 712 725 924 1008 983 1208 1237 1049 627
0 0 0 0 0 0 29 59 84 53 17 0 0 0 0 0 0 0 0 0 0 0 0 0 1 0 1 1 1 3 38 102 94 65 329 587 432 537 578 596 930 651 559 435
0 0 0 0 0 0 0 66 19 0 0 0 0 0 0 2 0 0 0 1 1 0 0 0 0 0 0 0 0 5 6 40 108 122 383 419 344 413 380 318 237 271 111 62

GFSCGP_con_mucape_063.txt.gz
CAPE
0 0 0 0 0 0 0 0 0 0 0 0 0 0 0 0 0 0 0 0 0 0 0 0 0 0 0 0 0 0 1 438 1477 1836 1396 1288 1336 1232 1181 947 839 1347 1426 1216
0 0 0 0 0 0 0 0 0 0 0 0 0 0 0 0 0 0 0 0 0 0 0 0 0 0 0 0 11 0 0 33 167 2037 1308 1215 1017 1049 976 1098 1211 1111 1262 1644
0 0 0 0 0 0 0 0 0 0 0 0 0 0 0 0 0 0 0 0 0 0 0 0 0 0 0 0 0 0 0 0 23 296 1422 2431 2203 2063 1320 862 757 1184 1353 1514
3 0 0 0 0 0 0 3 0 0 0 0 0 0 0 0 0 0 0 0 0 0 0 0 0 0 0 0 0 0 0 0 3 3 355 863 2789 2956 2412 2120 1778 1737 1169 1527
1 9 0 0 4 6 0 0 0 0 0 0 0 0 0 0 0 0 0 0 0 0 0 0 0 0 0 0 0 0 0 0 0 3 424 127 479 801 2217 3018 3786 3712 2747 1857
25 14 7 2 0 5 5 6 5 4 5 0 0 0 0 7 0 0 0 0 0 0 0 0 0 0 0 0 0 0 0 0 0 0 0 75 349 469 433 833 2127 3256 2253 2512
60 48 30 10 0 0 12 0 0 0 33 0 16 0 7 0 0 0 0 0 0 0 0 0 0 0 0 0 0 0 0 0 0 0 0 16 272 206 938 1082 390 1544 2605 3279
138 142 120 64 4 19 16 42 0 0 7 4 9 0 8 2 1 0 0 0 0 0 0 0 0 0 0 0 0 0 0 0 0 0 0 0 38 0 41 312 412 217 435 1487
212 182 64 18 28 31 35 48 38 2 3 0 25 15 23 0 0 0 0 0 0 0 0 0 0 0 0 0 0 0 0 0 0 0 2 1 27 175 124 736 1095 562 1374 726
84 120 177 82 8 25 45 55 126 87 0 0 0 22 31 19 6 7 0 0 0 0 1 2 0 0 0 0 1 0 0 0 0 0 0 0 0 0 87 442 687 963 1596 2520
97 119 184 113 154 142 49 90 67 122 77 0 0 30 4 7 13 7 0 1 2 1 3 3 2 4 0 0 0 0 0 3 0 0 0 4 0 0 12 142 305 646 1490 2031
122 249 181 100 123 134 134 161 218 181 84 3 0 0 1 6 15 0 0 10 36 18 4 1 0 0 1 0 0 0 0 0 1 2 0 0 0 71 248 145 210 578 1267 2033
207 183 258 162 164 46 39 37 76 94 171 79 13 34 11 12 77 74 89 80 49 33 40 17 5 1 1 0 0 0 1 0 0 4 4 45 48 198 788 585 498 666 783 1385
53 80 85 103 51 3 104 66 119 115 178 43 45 58 79 96 91 119 124 110 91 65 81 46 27 24 14 11 4 2 6 6 15 16 2 61 111 387 473 891 787 527 295 929
46 90 99 112 72 71 55 74 73 95 82 83 88 108 92 88 132 128 115 117 88 70 46 64 38 21 15 25 12 14 10 20 48 48 54 147 171 177 217 333 849 589 774 982
85 184 117 163 84 34 16 19 52 69 102 115 127 109 166 183 140 149 100 111 62 37 75 60 37 39 1 8 4 14 86 49 79 45 28 101 84 110 350 599 1067 1429 1013 1469
75 203 97 133 55 96 82 101 120 134 80 37 143 163 150 107 124 143 74 16 17 39 35 44 54 26 15 29 61 5 21 102 88 57 53 137 139 141 233 317 706 961 1785 2494
47 47 85 107 89 0 93 121 111 86 44 85 111 112 84 127 130 57 24 22 37 51 33 29 56 47 72 45 68 97 95 51 53 65 79 177 221 239 368 284 963 1337 2036 2814
14 0 97 98 160 159 103 186 197 176 79 72 100 225 169 21 43 46 28 47 43 55 70 46 46 59 64 37 6 48 100 36 38 46 135 204 277 365 474 476 1229 1681 2072 2690
54 9 88 162 134 2 104 155 99 108 108 278 187 104 24 25 35 28 41 35 31 33 46 2 0 0 102 35 80 69 78 83 60 40 153 247 290 449 687 883 1346 1837 2237 2779
58 35 83 59 85 62 131 144 86 104 166 102 92 63 46 70 72 44 36 21 23 44 0 0 0 0 7 34 7 44 104 85 99 116 195 328 505 658 936 1083 1534 2204 2426 2387
89 131 109 118 191 83 179 86 135 202 140 80 75 92 68 27 0 20 0 0 0 0 0 0 0 0 3 4 15 6 6 33 153 153 279 204 597 637 980 1086 1754 2103 2362 2014
115 141 170 173 232 221 159 219 188 202 126 112 65 4 0 0 0 0 0 0 0 0 0 11 14 4 6 4 11 9 34 134 197 158 311 292 318 519 1018 1082 1322 2001 1345 1285
37 66 71 60 93 23 78 60 113 130 95 44 0 0 0 0 0 0 0 0 0 1 6 3 5 2 5 15 14 17 39 31 89 123 167 152 223 754 1079 1129 1553 1109 1226 1727
0 11 0 0 0 0 0 11 110 61 57 0 0 0 0 0 0 0 1 0 2 1 1 3 3 1 0 0 1 10 12 40 0 53 88 135 317 417 985 981 1009 1749 1932 1721
0 0 0 0 0 0 0 13 72 20 0 0 0 0 0 2 0 1 17 15 2 0 0 0 0 0 0 0 0 0 0 5 28 260 378 177 502 649 686 660 812 809 820 610

GFSCGP_con_mucape_069.txt.gz
CAPE
0 0 0 0 0 0 0 0 0 0 0 0 0 0 0 0 0 0 0 0 0 0 0 0 0 0 0 0 5 40 314 1806 1839 1942 1716 1414 1294 1274 1086 847 1046 913 1765 1861
0 0 0 0 0 0 0 0 0 0 0 2 0 0 0 0 0 0 0 0 0 0 0 0 0 0 0 0 0 0 90 1763 1626 1773 1684 1355 1177 1159 1066 916 761 648 809 1498
0 0 0 0 0 0 0 0 0 0 0 0 3 0 0 0 0 0 0 0 0 0 0 0 0 0 0 0 0 0 8 84 874 1559 1625 1322 1156 928 908 957 874 675 551 607
0 0 0 0 0 0 0 0 0 0 0 0 7 3 0 0 0 0 0 0 0 0 0 0 0 0 0 0 0 0 0 0 0 486 1258 1333 758 407 486 871 773 955 743 631
0 0 0 0 0 3 0 0 0 0 0 0 0 0 0 0 0 0 0 0 0 0 0 0 0 0 0 0 0 0 0 0 0 0 111 391 709 1024 924 882 787 482 650 781
0 0 0 7 23 6 0 0 0 0 0 0 0 0 0 0 0 0 0 0 0 0 0 0 0 0 0 0 0 0 0 0 0 0 0 0 102 304 315 388 447 862 1256 820
0 0 36 32 40 21 27 0 0 0 0 0 0 48 0 0 0 0 0 0 0 0 0 0 0 0 0 0 0 0 0 0 0 0 0 0 2 0 24 209 288 325 441 654
10 9 10 26 50 33 2 4 0 0 0 0 14 0 0 0 1 0 0 0 0 0 0 0 0 0 0 0 0 0 0 0 0 0 0 0 0 0 0 0 9 11 54 225
14 0 9 29 17 62 68 1 2 10 0 7 0 0 0 0 0 0 0 0 0 0 0 0 0 0 0 0 0 0 0 0 0 0 0 0 3 4 0 0 0 0 0 10
9 10 10 16 35 92 88 70 18 1 48 1 1 0 15 2 3 22 0 0 0 0 0 0 0 0 0 0 0 0 0 0 0 0 0 0 59 51 19 6 0 0 0 54
20 10 0 2 148 116 25 3 9 2 9 0 0 1 21 18 9 0 0 2 0 0 0 0 0 0 0 0 0 2 1 0 0 0 0 0 0 0 6 90 57 10 2 78
10 8 27 0 22 37 17 48 6 1 4 3 0 0 0 0 0 8 0 1 0 0 0 4 0 0 0 0 0 0 3 0 0 0 2 14 8 4 0 0 13 112 76 11
32 23 0 0 18 17 1 0 1 1 19 3 4 0 60 0 14 2 0 6 0 0 2 9 1 0 0 0 0 0 0 0 0 0 0 0 0 0 0 2 34 14 84 141
1 0 3 0 4 1 0 0 0 2 0 0 0 0 9 33 29 3 2 16 0 0 0 0 0 0 0 1 0 0 0 0 0 0 0 0 0 0 0 0 17 55 267 364
8 1 5 6 4 0 0 1 2 2 0 3 8 11 46 29 25 0 14 19 0 0 0 3 2 0 0 0 0 0 0 0 0 0 0 0 0 0 0 0 18 7 27 0
19 0 2 0 1 3 5 21 30 9 6 0 0 7 13 13 4 2 1 11 4 1 1 3 0 6 6 0 0 0 0 0 0 0 0 0 0 0 0 0 0 37 10 1
0 1 0 0 0 0 0 44 50 41 25 4 4 0 1 8 25 10 2 53 10 8 1 4 4 0 0 1 0 0 0 0 0 0 0 0 0 0 0 0 6 41 22 18
0 0 0 0 0 0 28 16 1 15 13 42 22 27 10 1 0 4 41 33 2 0 0 0 0 0 0 0 0 0 0 0 0 0 0 0 0 0 0 0 4 9 11 0
0 2 0 0 0 0 25 43 6 33 19 0 6 0 0 0 0 0 0 0 0 0 0 0 0 0 0 0 0 0 0 0 0 0 0 0 0 0 0 0 0 3 19 20
1 83 0 0 0 0 30 18 1 1 0 11 0 0 0 0 0 0 0 0 0 0 0 0 0 0 0 0 0 0 0 0 0 0 0 0 0 0 0 0 0 18 61 186
0 0 0 0 0 0 6 0 0 0 0 0 0 0 0 0 0 0 0 0 0 0 0 0 0 0 0 0 0 0 0 0 0 0 0 0 0 0 0 0 0 3 5 100
0 1 0 4 0 1 0 0 0 0 0 0 0 0 0 0 0 0 0 0 0 0 0 0 0 0 0 0 0 0 0 0 0 0 0 0 0 0 0 6 0 3 157 299
39 40 15 21 24 0 0 0 0 0 0 0 6 1 0 0 0 0 0 0 0 0 0 0 0 0 0 0 0 0 0 0 0 5 0 0 0 11 1 10 9 103 297 191
18 3 5 0 1 0 0 0 0 0 0 7 0 0 0 0 0 0 0 0 0 0 0 0 0 0 0 0 0 0 0 0 0 0 0 0 0 0 1 1 30 89 169 225
0 0 0 0 0 0 0 0 0 0 0 0 0 0 0 0 0 0 0 0 0 0 0 0 0 0 0 0 0 0 0 0 12 9 1 0 5 1 0 0 11 157 251 269
0 0 0 0 0 0 0 0 0 0 0 0 0 0 0 0 0 0 0 0 0 12 0 0 0 0 0 0 0 0 0 0 2 1 31 31 5 20 5 0 35 118 141 91

GFSCGP_con_mucape_075.txt.gz
CAPE
0 0 0 0 0 0 0 0 0 0 0 0 0 0 0 0 0 0 0 0 0 0 0 0 0 0 48 573 1109 1296 1513 1449 1127 1592 1609 1363 829 359 386 496 378 469 501 545
0 0 0 0 0 0 0 0 0 0 0 0 0 0 0 0 0 0 0 0 0 0 0 0 0 6 67 132 412 1100 1667 2016 1892 1631 1818 1768 1524 1202 773 567 533 847 714 685
0 0 0 0 0 0 0 0 0 0 0 0 0 0 0 0 0 0 0 0 0 0 0 0 9 6 10 6 0 235 1048 1510 1992 1994 1866 1791 1425 1063 1206 1112 967 898 1292 1263
0 0 0 0 0 0 0 0 0 0 0 0 0 0 0 0 0 0 0 0 0 0 0 0 0 0 0 0 0 85 742 1006 1164 1276 1392 1443 1427 1341 1026 937 896 1093 1007 1074
0 0 0 0 0 0 0 0 0 0 0 0 0 0 0 0 0 0 0 0 0 0 0 0 0 0 0 0 0 0 0 0 0 0 0 364 876 1144 1010 943 849 662 658 798
0 0 0 0 0 0 0 0 0 1 3 0 0 0 0 0 0 0 0 0 0 0 0 0 0 0 0 0 0 0 0 0 0 0 1 42 111 137 200 420 436 524 689 650
0 0 0 2 1 0 1 7 0 0 1 0 0 0 0 0 0 0 0 0 0 0 0 0 0 0 0 0 0 0 0 0 0 0 0 0 0 0 0 6 9 71 207 314
0 0 0 0 1 0 0 5 15 0 0 3 0 0 0 0 7 11 0 0 0 0 0 0 0 2 26 0 0 0 0 0 0 0 0 0 0 0 0 0 0 6 38 32
0 0 0 0 2 13 16 11 35 8 0 0 0 0 0 0 0 0 0 0 0 0 0 0 0 93 48 3 0 1 0 0 0 0 0 0 0 0 0 0 0 0 0 4
0 0 0 0 1 30 52 30 23 41 1 0 0 0 0 0 6 12 6 0 0 0 0 0 19 16 1 0 1 2 5 0 0 0 0 0 0 0 0 0 0 0 0 0
0 0 0 0 0 0 0 28 63 16 19 0 0 0 56 15 6 0 3 0 0 0 0 0 0 0 0 0 0 0 0 0 0 0 0 0 0 0 0 0 0 0 0 0
0 0 0 0 0 0 11 25 44 8 0 41 45 0 1 2 0 0 0 0 0 0 0 0 0 0 0 0 0 0 0 0 0 0 0 0 0 0 0 0 0 0 0 0
0 0 0 0 0 0 0 8 20 6 4 0 0 0 0 0 0 6 3 0 0 0 0 0 4 13 9 1 0 0 0 0 0 0 0 0 0 0 0 0 0 0 0 0
0 0 0 0 0 0 0 0 3 15 0 0 4 0 0 0 0 0 0 0 0 0 0 0 0 0 2 0 0 0 0 0 1 4 0 0 0 0 0 0 0 0 0 0
0 0 0 0 0 0 0 0 0 3 0 3 1 1 0 0 0 0 0 0 0 0 0 0 0 0 0 0 0 0 0 1 0 4 0 0 0 0 0 0 0 0 0 0
0 0 0 0 0 0 0 0 4 38 62 20 3 0 0 0 0 0 0 4 0 1 0 5 13 3 0 0 0 0 0 0 0 0 0 0 0 0 0 0 0 0 0 0
0 0 0 0 0 0 0 0 0 0 1 7 7 0 0 0 0 0 0 0 2 1 3 1 1 0 0 0 0 0 0 0 0 0 0 0 0 0 0 0 0 0 0 0
0 0 0 0 0 0 0 4 0 0 0 2 1 0 1 0 0 0 0 0 0 0 0 0 0 0 0 0 0 0 0 0 0 0 0 0 0 0 0 0 0 0 0 0
0 0 0 0 0 0 0 7 7 4 0 0 1 0 0 0 0 0 0 0 0 0 0 0 0 0 0 0 0 0 0 0 0 0 0 0 0 0 0 0 0 0 0 0
0 0 0 0 0 0 0 0 0 1 0 0 2 0 0 0 0 0 0 0 0 0 0 0 0 0 0 0 0 0 0 0 0 0 0 0 0 0 0 0 0 0 0 0
5 0 0 0 0 0 0 0 4 0 0 0 0 0 0 0 0 0 0 0 0 0 0 0 0 0 0 0 0 0 0 0 0 0 0 0 0 0 0 0 0 0 0 0
0 0 0 0 0 0 0 0 0 0 0 0 0 0 0 0 0 0 0 0 0 0 0 0 0 0 0 0 0 0 0 0 0 0 0 0 0 0 0 0 0 0 0 0
2 0 0 0 0 0 0 0 0 0 0 0 0 0 0 0 0 0 0 0 0 0 0 0 0 0 0 0 0 0 0 0 0 0 0 0 0 0 0 0 0 0 0 0
17 8 2 0 0 0 0 0 0 0 0 0 0 0 0 0 0 0 0 0 0 0 0 0 0 0 0 0 0 0 0 0 0 0 0 0 0 0 0 0 0 0 0 0
0 0 0 0 0 0 0 0 0 0 0 0 0 0 0 0 0 0 0 0 2 0 2 27 0 0 0 0 0 0 0 0 0 0 0 0 0 0 0 0 0 0 0 0
0 0 0 0 0 0 0 0 0 0 0 0 0 0 0 0 0 0 0 0 0 0 19 7 0 0 5 25 0 0 0 0 0 0 0 0 0 0 0 0 0 0 2 0

GFSCGP_con_mucape_078.txt.gz
CAPE
0 0 0 0 0 0 0 0 0 0 0 0 0 0 0 0 0 0 0 0 0 0 0 0 0 0 0 5 253 847 1162 1338 1392 1337 1171 1064 941 772 716 648 640 612 628 611
0 0 0 0 0 0 0 0 0 0 0 0 0 0 0 0 0 0 0 0 0 0 0 0 0 0 0 11 215 627 1028 1240 1321 1351 1244 1160 1012 852 768 576 567 631 597 585
0 0 0 0 0 0 0 0 0 0 0 0 0 0 0 0 0 0 0 0 0 0 0 0 0 0 0 51 503 779 1107 1452 1505 1436 1571 1556 1470 1173 695 764 835 739 772 839
0 0 0 0 0 0 0 0 0 0 0 0 0 0 0 0 0 0 0 0 0 0 0 0 0 0 0 66 504 1121 1497 1915 2105 1970 1807 1773 1731 1539 1198 988 949 866 781 984
0 0 0 0 0 0 0 0 0 0 0 0 0 0 0 0 0 0 0 0 0 0 0 0 0 0 2 50 218 423 1117 1783 2184 2543 2405 2128 1756 1615 1362 1217 1150 1018 1098 844
0 0 0 0 0 0 0 0 0 0 0 0 0 1 0 0 0 0 0 0 0 0 0 0 0 0 0 11 52 9 780 1134 1309 1382 1260 1364 1308 1238 1193 1099 979 818 727 682
0 0 0 0 0 0 0 0 0 0 0 0 0 0 0 0 0 0 0 0 0 0 0 0 0 0 0 0 52 44 247 250 59 2 17 7 0 10 145 262 292 323 463 588
0 0 0 0 0 0 0 0 0 0 0 0 0 0 0 0 0 0 0 0 0 0 0 0 0 0 0 0 24 53 18 2 1 0 1 0 0 0 0 0 1 2 46 154
0 0 0 0 0 0 0 0 8 0 0 0 0 0 0 0 0 0 0 0 0 0 0 0 0 0 0 0 46 93 40 28 22 7 1 0 0 0 0 0 0 0 0 0
0 0 0 0 0 11 28 22 0 0 0 0 0 0 0 3 2 7 8 12 0 0 0 0 2 0 0 0 124 93 53 42 14 0 0 0 0 0 0 0 0 0 0 0
0 0 0 0 0 0 0 0 21 11 0 0 0 6 3 23 23 8 0 0 0 0 0 0 40 58 139 99 79 56 32 6 0 0 0 0 0 0 0 0 0 0 0 0
0 0 0 0 0 0 0 0 0 0 0 4 0 0 1 0 0 1 0 0 0 0 0 0 12 16 85 59 33 0 0 0 0 0 0 0 0 0 0 0 0 0 0 0
0 0 0 0 0 0 0 0 1 8 6 0 0 0 23 0 0 0 0 0 0 0 0 0 1 8 0 0 0 0 0 0 0 0 0 0 2 0 0 0 0 0 0 0
0 0 0 0 0 0 0 0 0 0 0 0 0 0 0 0 0 0 0 0 0 0 0 0 0 3 0 0 2 1 0 0 3 1 0 0 0 0 0 0 0 0 0 0
0 0 0 0 0 0 0 0 0 0 0 0 0 0 0 4 0 0 0 0 0 0 0 0 0 0 0 0 0 1 0 0 0 0 0 0 0 0 0 0 0 0 0 0
0 0 0 0 0 0 0 0 0 0 4 0 0 0 0 0 0 0 0 0 0 0 0 0 0 0 0 0 5 2 0 0 0 0 0 0 0 0 0 0 0 0 0 0
0 0 0 0 0 0 0 0 0 0 0 0 0 0 0 0 0 0 0 0 0 0 0 0 0 0 0 0 0 0 6 1 0 0 2 0 0 0 0 0 0 0 0 0
0 0 0 0 0 0 0 0 0 0 0 0 0 0 0 1 0 0 0 0 0 0 0 0 0 0 0 0 0 0 0 0 0 0 0 0 0 0 0 0 0 0 0 0
0 0 0 0 0 0 0 0 0 0 0 0 0 0 0 0 0 0 0 0 0 0 0 0 0 0 0 0 0 0 0 0 0 0 0 0 0 0 0 0 0 0 0 0
1 0 0 0 0 0 0 0 0 0 0 0 0 0 0 0 0 0 0 0 0 0 0 0 0 0 0 0 0 0 0 0 0 0 0 0 0 0 0 0 0 0 0 0
0 0 0 0 0 0 0 0 0 0 0 0 0 0 0 0 0 0 0 0 0 0 0 0 0 0 0 0 0 0 0 0 0 0 0 0 0 0 0 0 0 0 0 0
0 0 0 0 0 0 0 0 0 0 0 0 0 0 0 0 0 0 0 0 0 0 0 0 0 0 0 0 0 0 0 0 0 0 0 0 0 0 0 0 0 0 0 0
1 0 0 3 0 0 0 0 0 0 0 0 0 0 0 0 0 0 0 0 0 0 0 0 0 0 0 0 0 0 0 0 0 0 0 0 0 0 0 0 0 0 0 0
20 17 8 4 0 0 0 0 0 0 0 0 0 0 0 0 0 0 0 0 0 0 0 0 4 4 0 0 0 0 0 0 0 0 0 0 0 0 0 0 0 0 0 0
1 5 0 0 0 0 0 0 0 0 0 0 0 0 0 0 0 0 0 0 0 1 2 0 0 0 0 0 0 0 0 0 0 0 0 0 0 0 0 0 0 0 0 0
0 0 0 0 0 0 0 0 0 0 0 0 0 0 0 0 0 0 0 0 0 1 0 0 0 0 0 0 0 2 0 0 0 0 0 0 0 0 0 0 0 0 0 0

GFSCGP_con_mucape_084.txt.gz
CAPE
0 0 0 0 0 0 0 0 0 0 0 0 0 0 0 0 0 0 0 0 0 0 0 0 0 0 0 0 0 294 2265 3540 3699 3393 3094 2807 2662 2563 2358 2239 2767 2258 2201 1991
0 0 0 0 0 0 0 0 0 0 0 0 0 0 0 0 0 0 0 0 0 0 0 0 0 0 0 0 3 200 1260 3018 3686 3413 3288 3053 2875 2401 2308 2197 2411 2448 2345 2249
0 0 0 0 0 0 0 0 0 0 0 0 0 0 0 0 0 0 0 0 0 0 0 0 0 0 0 0 17 137 762 2288 4089 4151 3550 3305 2828 2732 2470 2570 2422 2647 2312 2238
0 0 0 0 0 0 0 0 0 0 0 0 0 0 0 0 0 0 0 0 0 0 0 0 0 0 0 0 0 87 478 1364 2548 3750 3635 3687 3005 2778 2528 2737 2541 2486 2285 2099
0 0 0 0 0 0 0 0 0 0 0 0 0 0 0 0 0 0 0 0 0 0 0 0 0 0 0 0 0 0 476 886 1863 3206 3883 3384 3204 2758 2578 2707 3750 3632 2878 2394
0 0 0 0 0 0 0 0 0 0 0 0 0 0 0 0 0 0 1 0 3 5 0 0 0 0 0 0 0 0 262 1074 1532 2465 3363 3990 4103 3550 2823 3257 3026 2899 2595 2647
0 0 0 0 0 0 0 0 0 0 0 0 0 0 0 0 11 2 8 8 17 29 18 20 8 13 10 22 52 63 39 798 1869 2415 2799 3131 3585 3924 3932 3749 3451 3287 2584 2702
0 0 0 0 0 0 0 0 0 0 0 0 0 0 0 0 7 44 28 37 34 65 80 75 76 83 75 62 86 247 139 306 1295 2888 3370 3394 3614 3855 3776 3709 3172 2987 2216 2645
0 0 0 0 0 0 0 0 0 0 0 0 0 0 4 11 40 59 65 88 105 124 162 172 192 196 204 219 199 296 526 391 754 2034 3251 3449 4024 4093 3755 3836 3705 2951 3020 2312
0 0 0 0 0 0 0 0 0 0 0 0 0 0 0 33 43 41 48 71 128 101 111 137 130 129 267 270 332 288 612 720 718 1368 2094 2640 2813 2465 1828 1792 1925 1379 1258 1183
0 0 0 0 0 0 0 0 0 5 0 0 0 0 3 4 22 81 97 35 170 163 117 60 27 19 56 82 155 397 319 611 762 1002 1327 1292 1123 1065 1099 1119 1092 997 1085 1060
0 0 0 0 0 0 0 0 0 0 0 0 0 0 3 0 56 135 108 158 259 236 102 41 4 0 0 0 26 175 365 188 475 538 788 808 924 888 1030 934 931 924 1061 920
0 0 0 0 0 0 0 0 4 27 47 2 0 0 22 36 44 99 137 235 283 190 92 58 26 0 0 0 0 0 40 104 109 209 445 554 828 1077 1187 1145 1033 969 830 801
17 0 0 0 0 0 0 0 15 47 3 0 46 28 51 63 72 101 190 211 159 144 110 56 9 1 0 0 0 0 0 0 23 129 78 237 687 940 1217 1318 1204 1049 777 633
0 0 0 0 0 0 0 0 0 0 13 35 8 23 17 31 68 68 85 102 94 40 6 3 1 1 0 0 0 0 0 0 0 36 0 0 23 335 802 1043 1290 1156 915 642
0 0 0 0 0 0 0 0 0 0 0 4 8 15 31 43 60 37 44 31 8 5 5 6 8 5 8 12 8 6 3 0 0 0 0 1 1 1 43 544 1100 1562 1280 859
0 0 0 0 0 0 0 3 2 3 1 2 11 56 39 41 29 19 25 13 6 5 5 15 18 26 41 42 42 38 25 19 10 5 0 0 0 0 0 6 335 926 1515 1615
0 0 0 0 0 0 26 0 0 0 1 8 24 30 16 11 14 2 0 4 5 2 0 0 0 0 0 0 0 0 0 30 39 22 12 0 0 0 0 0 0 374 853 1733
12 0 0 0 0 20 19 12 7 8 0 6 10 1 3 7 6 0 2 2 0 0 0 0 0 0 0 0 0 0 0 0 0 37 35 29 7 0 0 0 0 169 786 1179
6 20 0 0 0 0 38 8 1 0 19 0 2 12 14 0 0 0 0 0 0 0 0 0 0 0 0 0 0 0 0 0 0 0 0 64 41 28 19 145 93 76 558 590
0 0 0 0 0 22 41 0 0 6 10 2 3 7 0 0 0 0 0 0 0 0 0 0 0 0 0 0 0 0 0 0 0 0 0 0 4 42 69 180 222 370 117 364
0 0 0 0 0 0 1 28 27 48 2 5 0 0 0 0 0 0 0 0 0 0 0 0 3 0 0 0 0 3 1 0 0 0 0 0 0 28 60 169 130 110 427 388
30 101 94 96 82 79 71 29 4 5 2 0 0 0 0 0 0 0 0 0 0 0 0 1 0 0 0 4 7 0 0 2 2 0 0 0 0 0 0 60 138 99 145 119
62 70 81 63 70 53 47 2 4 13 0 0 0 0 0 0 0 0 0 0 0 0 0 0 0 0 18 0 1 1 0 0 0 0 0 0 0 0 0 0 0 63 61 45
50 40 57 63 75 40 7 9 10 0 0 0 0 0 0 0 0 0 0 0 0 0 0 0 1 3 4 1 1 0 0 0 0 0 0 0 0 0 0 0 0 0 65 42
42 44 95 54 59 27 27 11 0 0 0 0 0 0 0 0 0 0 0 0 0 0 3 2 6 21 5 0 0 0 0 0 0 0 0 0 0 0 0 0 0 0 0 8

GFSCGP_con_mucape_087.txt.gz
CAPE
0 0 0 0 0 0 0 0 0 0 0 0 0 0 0 0 0 0 0 0 0 0 0 0 0 0 0 0 0 546 1044 1374 3741 3397 3224 3566 3163 3369 3413 3146 3225 3030 2969 2765
0 0 0 0 0 0 0 0 0 0 0 0 0 0 0 0 0 0 0 0 0 0 0 0 0 0 0 0 61 107 291 1471 2898 3799 3811 3767 3752 3775 3538 3458 3300 3366 3428 3395
0 0 0 0 0 0 0 0 0 0 0 0 0 0 0 0 0 0 0 0 0 0 0 0 0 0 0 0 70 95 733 865 1633 3984 3866 4283 4204 3868 3399 3432 3651 3487 3327 3257
0 0 0 0 0 0 0 0 0 0 0 0 0 0 0 0 0 0 0 0 0 0 0 0 0 0 0 0 0 63 307 997 1079 1966 3308 3676 3422 3503 3447 3548 3189 3580 3541 3271
0 0 0 0 0 0 0 0 0 0 0 0 0 0 5 7 2 2 0 0 0 0 0 0 0 0 0 0 0 40 484 753 1274 2011 3195 3382 3795 3414 3298 3730 3818 3987 3800 3582
1 2 0 0 0 0 0 0 0 0 0 0 0 3 0 12 0 0 0 0 0 0 3 5 9 15 24 31 30 26 302 827 1328 1551 2157 3473 3441 3736 3312 3545 3423 3546 3535 3885
0 0 0 0 0 0 0 2 0 0 0 0 1 0 0 0 0 0 0 5 22 34 18 18 47 53 61 98 102 67 35 258 651 1335 2059 2899 3524 3933 3937 3632 3250 3510 3669 3477
0 2 13 0 0 0 4 23 0 0 0 0 2 0 0 0 0 2 22 54 59 63 67 72 96 121 134 185 200 170 117 178 492 842 1861 2922 3239 3775 3925 3746 3208 3427 3115 3508
0 0 0 0 0 0 0 0 12 0 0 0 0 0 2 4 12 15 28 40 56 71 80 104 90 124 165 163 261 235 288 259 525 637 1664 3103 3298 3044 3259 3771 3375 3364 3475 2348
0 0 2 2 0 0 0 0 0 0 0 0 0 0 0 22 4 4 19 41 46 38 74 121 143 172 211 198 181 223 320 443 514 798 916 1655 2550 3121 3335 3444 2441 2245 2417 3225
0 0 0 0 0 0 0 0 0 0 0 0 0 0 4 11 6 18 31 58 69 79 75 118 197 222 201 197 158 143 258 460 488 737 962 1443 1892 2163 2472 1981 1077 1484 2784 3104
4 0 0 0 3 0 0 0 0 0 0 0 0 0 34 6 13 24 36 57 72 51 73 105 166 194 171 141 98 60 118 209 370 440 671 1140 1361 1490 1837 1608 240 1582 1874 2403
0 0 0 0 0 0 0 0 0 0 0 0 0 0 47 44 47 38 61 77 52 106 103 86 121 138 108 74 40 25 27 27 56 227 299 512 1008 1243 1594 1139 1448 1290 1480 1584
0 0 0 0 0 25 0 0 0 5 0 0 0 56 54 45 51 43 51 77 54 82 99 126 94 60 48 44 29 18 16 12 15 14 145 314 581 967 1503 1421 1178 975 983 972
0 0 0 0 0 0 0 0 0 0 0 0 14 38 26 42 51 69 80 78 58 56 59 61 61 60 58 66 60 46 36 23 20 20 17 44 333 234 640 1096 1183 1056 1200 861
0 0 0 0 0 0 0 0 10 17 22 34 31 21 37 54 64 71 39 21 24 18 14 22 45 38 43 49 31 73 34 22 49 39 22 16 1 226 148 276 1070 1350 1192 922
0 0 0 0 0 0 0 1 8 3 22 47 9 62 50 60 50 18 7 7 7 4 13 10 1 0 49 83 87 41 44 37 50 13 46 28 9 1 138 64 234 980 2045 2331
0 0 0 0 0 0 9 45 10 28 6 39 62 70 65 28 15 0 1 7 2 0 0 0 0 0 0 0 0 0 0 0 0 0 11 29 44 18 2 21 22 816 1448 1967
0 0 0 0 0 0 3 36 50 30 23 50 71 26 9 1 0 0 0 0 0 0 0 0 0 0 0 0 0 0 0 0 0 0 0 0 26 51 49 9 3 421 283 1453
0 0 0 0 0 0 69 24 1 11 20 51 14 4 2 1 0 0 0 0 0 0 0 0 0 0 0 0 0 0 0 0 0 0 0 0 0 15 12 104 83 10 431 149
0 0 0 0 0 20 66 32 22 6 81 24 1 1 4 10 11 1 0 0 0 0 0 0 0 0 0 0 0 0 1 0 0 0 0 0 0 0 14 16 220 201 4 74
45 0 0 0 0 0 35 60 45 100 36 1 2 6 9 2 2 0 0 0 0 0 0 2 0 2 0 2 3 0 0 0 0 0 0 0 0 0 1 27 16 178 238 0
164 143 88 69 74 129 113 95 62 12 16 9 6 11 11 0 0 0 0 0 0 0 6 2 7 2 14 31 10 0 0 0 0 0 0 0 0 0 0 14 19 25 359 147
29 82 112 73 86 45 35 58 19 31 13 5 7 8 7 2 0 0 0 0 0 0 12 1 9 0 8 0 0 0 0 0 0 0 0 0 0 0 0 0 8 13 111 321
12 44 46 70 65 67 77 44 26 11 5 1 4 4 10 0 0 0 0 0 0 3 8 11 1 0 0 0 0 0 0 0 0 0 0 0 0 0 0 0 4 1 76 149
21 15 66 95 76 80 85 43 13 5 0 4 3 2 1 3 0 0 0 0 0 3 0 6 4 7 2 1 0 0 0 0 0 0 0 0 0 0 0 0 0 0 0 2